STARLINK-31790

operational
NORAD ID: 59648 Int'l Des: 2024-082 Owner: SPXS Country: US Constellation: starlink
LEOCIRCULAR

About STARLINK-31790

Description loading...

Live Position

Loading 3D Globe...

Upcoming Passes

Altitude History

Altitude vs Time

uPlot chart will show altitude changes over time

Two-Line Element Set

1 59648U 24082T 25232.83335648 .01177338 85340-3 11621-2 0 9998
2 59648 42.9793 115.4562 0024164 250.5489 134.1287 16.09928298 74979
Epoch: Aug 20, 2025 • Age: 638 hours

Current Status

Position data unavailable
Launch Date May 3, 2024
Age 1.3 years
Decay Date Aug 21, 2025
Type internet

Technical Details

Classification Payload
Mass 730.00 kg
Dry Mass 700.00 kg
Total Mass 730.00 kg
Length 0.30 m
Diameter 4.10 m
Span 29.00 m
Shape Box + pan
Manufacturer SPXS
Bus Type Starlink V2M
Phase Status Unknown Transfer Status
Owner/State SPXS/US

Large Constellations

Loading constellations...